Location: London
(51.5074°N, 0.1278°W)
Time: 14:41:49
(UTC+01:00)

ISS - Visible Passes

Search period start: 15 July 2024 00:00
Search period end: 25 July 2024 00:00
Orbit: 410 x 424 km, 51.6° (Epoch: 15 July)

Date Brightness Start Highest point End Pass type
(mag) Time Alt. Az. Time Alt. Az. Time Alt. Az.
15 Jul -3.3 01:14:32 10° W 01:17:21 42° SW 01:17:21 42° SW visible
15 Jul -3.8 22:49:29 10° W 22:52:49 85° N 22:56:08 10° E visible
16 Jul -3.8 00:26:16 10° W 00:29:32 59° SSW 00:30:10 47° SSE visible
16 Jul -3.8 22:01:12 10° W 22:04:31 89° N 22:07:51 10° E visible
16 Jul -3.9 23:37:58 10° W 23:41:17 74° SSW 23:43:07 24° ESE visible
17 Jul -1.7 01:14:58 10° W 01:15:58 16° WSW 01:15:58 16° WSW visible
17 Jul -3.9 22:49:38 10° W 22:52:59 86° S 22:56:07 11° E visible
18 Jul -2.8 00:26:29 10° W 00:28:59 31° SW 00:28:59 31° SW visible
18 Jul -3.8 22:01:18 10° W 22:04:38 87° N 22:07:58 10° E visible
18 Jul -3.5 23:38:04 10° W 23:41:17 46° SSW 23:42:03 37° SSE visible
19 Jul -3.7 22:49:41 10° W 22:52:58 61° SSW 22:55:07 20° ESE visible
20 Jul -1.6 00:26:57 10° W 00:28:00 15° WSW 00:28:00 15° WSW visible
20 Jul -3.8 22:01:17 10° W 22:04:36 76° SSW 22:07:55 10° ESE visible
20 Jul -2.5 23:38:14 10° W 23:41:02 25° SSW 23:41:05 25° SSW visible
21 Jul -2.9 22:49:40 10° W 22:52:44 35° SSW 22:54:12 23° SSE visible
22 Jul -3.3 22:01:09 10° W 22:04:22 48° SSW 22:07:20 12° SE visible
22 Jul -1.4 23:38:58 10° WSW 23:40:12 13° SW 23:40:12 13° SW visible
23 Jul -1.9 22:49:50 10° W 22:52:14 19° SW 22:53:21 16° S visible
24 Jul -2.4 22:01:02 10° W 22:03:53 26° SSW 22:06:30 11° SSE visible
